Wind_Speed
40 38 37 35 34 32 31 30 28 27 25 24 23 22 21 21 21 21 21 21 21 22 22 23 24 25 26 27 29 30 31 33 34 35 36 37 37 38 38 38 39 39 39
41 40 38 36 35 33 32 30 29 28 26 25 24 23 23 22 22 22 22 22 23 23 23 24 25 26 28 29 30 32 33 34 36 37 37 38 39 39 39 39 40 40 40
42 41 39 38 36 34 33 31 30 29 28 27 26 25 25 24 23 23 23 24 24 24 25 26 27 28 29 30 32 33 34 36 37 38 39 39 40 40 41 41 41 41 42
43 42 40 39 37 35 34 32 31 30 29 28 27 27 26 25 25 25 25 25 25 26 26 27 28 29 31 32 33 35 36 37 38 40 40 41 41 41 41 42 42 42 43
45 43 41 40 38 36 35 33 32 31 30 29 28 28 27 26 26 26 26 26 27 27 28 28 29 30 32 33 35 36 37 38 40 41 41 42 42 42 42 43 43 44 44
46 44 42 40 39 37 36 35 33 32 31 30 29 29 28 27 27 27 27 27 28 28 29 30 31 32 33 34 36 37 39 40 41 42 43 43 43 44 44 44 45 45 46
46 45 43 41 40 38 37 35 34 33 32 31 30 29 28 28 28 28 28 29 29 29 30 31 32 33 34 36 37 39 40 41 42 43 43 44 44 44 45 45 46 47 47
47 45 44 42 40 39 38 36 35 33 32 31 31 30 29 29 29 29 29 30 30 31 31 32 33 34 36 37 38 40 41 42 43 44 44 45 45 46 46 47 47 48 50
47 46 44 42 41 39 38 36 36 34 33 32 32 31 30 29 29 29 30 31 32 32 32 33 34 36 37 38 40 41 42 43 44 44 45 46 46 47 48 48 49 50 52
47 46 44 43 41 39 38 36 35 35 34 33 32 31 31 30 30 30 31 32 32 33 33 34 36 37 38 39 40 42 43 43 44 45 45 46 47 48 49 50 51 52 53
47 46 45 43 41 40 38 37 36 35 34 33 32 32 31 31 31 31 32 33 33 33 34 35 36 38 39 40 41 42 43 44 45 45 46 47 48 49 50 51 52 54 55
47 45 44 43 41 40 39 37 36 35 34 33 33 32 32 32 32 32 32 33 34 34 35 36 37 38 39 40 42 43 43 44 45 46 47 48 49 50 52 53 54 55 56
46 44 43 43 42 41 40 38 37 36 35 34 33 33 33 33 33 33 33 34 34 35 36 36 38 39 40 41 42 43 44 45 46 47 48 49 50 52 53 54 55 56 57
47 45 43 42 42 42 41 39 38 36 36 35 35 34 33 34 33 34 34 35 35 35 36 37 38 39 41 42 43 44 44 45 46 47 48 50 51 53 54 55 55 57 58
48 45 43 43 42 42 41 40 38 37 37 36 36 35 35 35 34 34 35 35 36 36 36 38 39 40 41 43 44 44 45 46 47 48 49 51 52 53 54 55 57 58 59
48 46 44 44 43 42 41 40 40 38 37 37 36 36 35 35 35 35 36 36 36 37 37 39 40 40 41 43 44 45 45 46 47 49 50 52 54 55 55 56 58 59 59
49 47 46 45 43 42 41 40 40 39 38 37 36 36 35 35 36 36 36 36 37 38 38 39 40 40 41 43 44 45 45 46 48 50 51 53 54 55 56 57 59 59 58
49 48 47 46 45 43 42 41 40 39 38 37 36 36 36 36 36 36 36 36 37 38 38 39 39 40 42 43 44 44 46 47 49 50 52 54 55 56 57 58 59 59 58
49 49 48 46 44 42 42 41 40 39 38 37 36 36 36 36 35 36 37 37 38 38 38 39 40 41 42 43 44 45 46 48 49 50 53 54 55 56 57 58 59 59 59
50 49 48 46 44 42 41 41 40 39 38 37 37 35 35 35 36 36 37 38 38 38 39 40 40 41 42 43 44 45 47 48 49 51 53 55 56 57 57 58 59 60 60
50 49 47 46 44 42 40 39 39 38 38 37 36 35 35 35 36 37 37 37 38 38 39 40 40 41 42 43 44 45 46 48 50 53 54 56 56 56 57 58 59 60 60
49 49 48 46 44 42 40 38 37 37 37 36 35 35 36 37 36 36 37 37 38 38 38 40 40 40 41 42 43 45 47 49 51 53 55 55 55 56 57 58 60 60 60
50 49 47 46 44 41 40 39 36 36 36 35 35 36 36 36 36 36 36 37 37 37 38 39 39 40 41 42 44 46 47 49 51 52 54 55 56 57 58 59 60 60 60
50 48 46 45 44 42 40 39 38 37 36 36 36 36 36 36 35 36 36 36 36 36 37 37 38 39 40 42 44 46 47 49 50 52 54 55 56 57 58 59 59 59 59
49 47 46 45 44 42 41 39 38 37 37 36 36 36 36 35 34 35 35 35 35 36 37 37 38 39 40 42 43 45 47 48 50 52 54 55 56 57 58 58 58 58 58
47 46 44 43 43 42 41 40 39 38 37 36 36 35 34 34 34 34 34 35 36 36 36 36 38 39 40 41 42 44 46 48 51 53 54 55 56 56 56 57 58 57 56
Wind_Direction
228 229 231 233 234 236 238 239 242 245 247 249 251 255 259 264 269 272 276 280 285 290 295 299 304 306 309 311 313 315 316 317 318 319 319 319 319 319 318 317 317 317 316
228 229 231 232 234 236 238 240 242 245 247 248 251 255 260 264 268 272 276 280 284 289 293 298 302 305 308 310 312 313 315 316 317 318 318 318 318 318 317 317 317 316 315
227 229 230 232 233 235 237 239 242 245 246 248 252 255 259 264 268 272 276 280 283 287 292 296 300 304 307 309 311 312 313 314 315 316 317 317 317 317 317 316 316 315 315
227 229 231 232 233 235 237 239 242 244 246 248 251 255 259 263 268 272 276 279 283 286 290 295 299 302 305 308 310 311 312 313 314 315 316 316 316 316 316 315 315 315 314
227 229 230 231 233 234 236 239 242 244 246 248 251 255 258 263 268 272 275 279 283 286 290 294 298 301 304 307 309 310 312 312 313 314 315 315 315 315 315 314 314 314 313
226 228 230 231 234 234 236 239 242 244 246 248 251 254 258 264 269 272 275 279 283 287 290 294 297 300 304 306 308 310 311 312 312 313 314 314 314 314 314 314 313 313 312
226 228 229 231 234 235 236 238 240 243 245 248 251 254 258 265 269 273 276 279 283 287 290 293 297 300 303 305 308 310 311 311 312 312 313 313 313 313 313 313 313 313 312
226 227 229 231 233 234 236 238 240 242 244 248 250 254 259 264 269 273 277 280 284 287 290 293 296 299 302 305 307 309 310 311 311 312 312 313 313 313 313 313 313 312 312
226 227 229 231 233 234 236 238 240 241 243 247 250 254 260 265 270 273 277 281 284 287 290 293 295 298 301 304 307 308 310 310 311 312 312 312 312 313 313 313 313 312 312
226 227 229 231 233 233 236 238 239 241 244 248 251 255 260 265 270 273 277 281 285 287 290 292 295 297 300 303 306 308 309 310 311 311 312 312 313 313 313 312 313 313 313
225 227 229 230 232 233 235 236 239 242 244 248 251 255 259 265 270 273 277 281 284 288 290 293 295 297 300 303 306 308 308 309 310 311 311 312 312 312 312 312 313 313 313
226 228 229 230 231 232 234 236 239 242 244 247 252 255 260 265 269 273 277 281 285 288 290 292 294 298 300 303 306 307 308 309 310 311 311 312 312 312 312 312 313 314 314
225 227 229 230 231 232 234 236 239 242 244 248 252 256 261 266 270 273 278 282 285 287 290 292 295 298 301 303 305 307 308 310 310 311 311 312 312 313 312 313 314 314 314
224 226 228 229 230 232 234 236 239 242 245 249 253 257 262 266 270 274 279 282 285 287 290 293 295 298 301 303 305 307 309 310 310 311 311 312 313 313 313 314 314 314 315
224 226 228 228 230 232 234 236 240 243 246 250 254 258 262 266 270 275 279 282 285 287 290 293 296 298 300 303 305 307 308 310 311 311 311 312 313 314 314 314 315 315 315
224 226 228 229 231 233 235 238 240 244 247 251 255 259 263 267 271 275 279 282 284 287 290 294 296 298 300 303 305 306 308 309 311 311 312 313 314 314 314 314 315 316 316
224 227 228 230 232 234 237 239 242 245 248 251 255 260 264 268 272 275 279 282 284 286 290 294 296 298 300 303 304 306 308 310 311 311 312 314 314 314 314 315 316 317 316
224 226 229 231 233 235 238 241 243 246 249 252 256 260 264 268 272 275 279 283 285 288 291 294 296 299 301 303 304 306 308 310 312 312 314 315 315 315 315 316 317 317 316
225 227 229 231 233 236 239 241 244 246 249 252 256 261 266 269 273 276 280 284 286 289 291 294 297 299 301 303 305 307 309 310 312 313 314 315 315 315 316 317 318 317 317
226 227 229 232 234 236 239 242 245 247 249 253 257 262 266 270 273 277 282 284 286 288 291 294 297 299 302 304 306 307 309 311 312 313 315 316 316 316 317 318 318 318 317
226 227 229 232 234 237 239 242 245 247 250 253 258 263 267 271 276 279 283 284 286 289 292 294 297 299 302 304 306 308 309 311 312 314 316 317 317 318 318 319 319 319 319
227 229 230 233 235 238 239 241 246 248 251 254 259 263 267 272 276 280 283 285 287 289 292 295 297 300 303 305 306 307 309 311 313 315 316 317 318 319 319 319 320 320 320
228 231 232 235 237 238 239 241 245 248 251 254 259 263 268 272 276 280 282 286 289 291 293 296 299 301 303 305 306 308 310 312 314 316 318 318 319 319 319 320 321 321 321
229 231 233 235 236 238 239 242 245 248 251 254 259 264 268 272 275 279 283 286 289 292 295 297 300 303 304 306 307 309 311 313 315 317 319 319 319 320 320 321 321 322 322
228 230 232 233 235 237 240 243 246 249 252 255 260 265 269 271 276 279 283 286 289 292 296 299 302 304 304 306 308 309 313 315 317 318 320 320 320 321 321 322 323 323 323
227 228 230 231 233 236 240 243 246 250 253 257 261 266 268 271 276 280 283 287 290 294 297 299 302 304 305 307 308 311 314 316 318 319 320 320 321 322 323 323 323 324 324
Height
5810 5814 5817 5820 5823 5825 5827 5829 5831 5833 5834 5835 5836 5836 5837 5836 5836 5836 5835 5834 5833 5831 5829 5827 5825 5822 5819 5816 5813 5809 5805 5801 5797 5793 5788 5784 5779 5775 5770 5765 5760 5755 5750
5803 5807 5811 5814 5817 5820 5822 5824 5826 5828 5829 5830 5831 5832 5832 5832 5832 5831 5831 5829 5828 5827 5825 5822 5820 5817 5814 5811 5808 5804 5800 5796 5791 5787 5782 5778 5773 5768 5763 5758 5753 5748 5743
5796 5800 5804 5808 5811 5814 5816 5818 5820 5822 5824 5825 5826 5827 5827 5827 5827 5827 5826 5825 5823 5822 5820 5818 5815 5812 5809 5806 5802 5798 5794 5790 5786 5781 5776 5772 5767 5762 5756 5751 5746 5741 5736
5789 5793 5797 5801 5804 5807 5810 5813 5815 5817 5818 5820 5821 5822 5822 5822 5822 5822 5821 5820 5818 5817 5815 5812 5810 5807 5804 5800 5797 5793 5788 5784 5780 5775 5770 5765 5760 5754 5749 5744 5739 5733 5728
5781 5786 5790 5794 5798 5801 5804 5807 5809 5811 5813 5814 5816 5817 5817 5817 5817 5816 5816 5814 5813 5811 5809 5807 5804 5801 5798 5795 5791 5787 5782 5778 5773 5768 5763 5758 5753 5747 5742 5736 5731 5725 5720
5774 5779 5783 5787 5791 5794 5797 5800 5803 5805 5807 5808 5810 5811 5812 5812 5812 5811 5810 5809 5807 5806 5804 5801 5799 5796 5792 5788 5784 5780 5776 5771 5767 5761 5756 5751 5745 5740 5734 5728 5723 5717 5711
5766 5771 5776 5780 5784 5788 5791 5794 5796 5799 5801 5802 5804 5805 5806 5806 5806 5805 5804 5803 5802 5800 5798 5795 5792 5789 5786 5782 5778 5774 5769 5764 5759 5754 5749 5743 5738 5732 5726 5720 5714 5708 5702
5759 5764 5769 5773 5777 5781 5784 5787 5790 5792 5795 5796 5798 5799 5800 5801 5800 5799 5798 5797 5796 5794 5792 5789 5786 5783 5779 5775 5771 5767 5762 5757 5752 5747 5741 5735 5730 5724 5718 5711 5705 5698 5692
5751 5756 5761 5766 5770 5774 5777 5780 5783 5786 5788 5790 5791 5793 5794 5794 5794 5793 5792 5791 5789 5788 5785 5783 5780 5776 5772 5769 5764 5760 5755 5750 5744 5739 5733 5728 5721 5715 5709 5702 5696 5689 5681
5743 5749 5754 5759 5763 5767 5770 5773 5776 5779 5781 5783 5785 5786 5787 5788 5788 5787 5786 5785 5783 5781 5779 5776 5773 5769 5765 5761 5757 5753 5747 5742 5737 5731 5725 5719 5713 5706 5700 5693 5686 5678 5671
5735 5741 5746 5751 5755 5760 5763 5767 5769 5772 5775 5777 5778 5779 5780 5781 5780 5780 5779 5778 5776 5774 5772 5769 5765 5762 5758 5754 5750 5745 5740 5734 5729 5723 5717 5711 5704 5698 5690 5683 5676 5668 5659
5727 5733 5739 5744 5748 5752 5756 5759 5762 5765 5768 5770 5771 5773 5774 5774 5774 5773 5772 5771 5769 5767 5764 5761 5758 5754 5751 5746 5742 5737 5732 5726 5721 5715 5709 5702 5695 5688 5681 5673 5665 5657 5648
5720 5726 5731 5736 5741 5745 5749 5752 5755 5758 5761 5763 5764 5766 5767 5767 5767 5766 5765 5764 5762 5760 5757 5754 5750 5747 5743 5739 5734 5729 5724 5718 5712 5706 5700 5693 5686 5679 5671 5663 5655 5646 5637
5712 5718 5724 5728 5733 5737 5741 5745 5748 5751 5753 5756 5757 5759 5759 5760 5760 5759 5758 5757 5755 5753 5750 5747 5743 5739 5735 5731 5726 5721 5716 5710 5704 5698 5691 5684 5677 5669 5661 5653 5644 5635 5626
5704 5710 5716 5721 5725 5729 5733 5737 5741 5743 5746 5748 5750 5751 5752 5752 5752 5752 5751 5749 5748 5745 5743 5739 5736 5732 5727 5723 5718 5713 5707 5702 5695 5689 5682 5675 5667 5659 5651 5642 5633 5624 5614
5696 5702 5708 5713 5717 5722 5726 5729 5733 5736 5739 5741 5743 5744 5745 5745 5745 5744 5743 5742 5739 5737 5735 5732 5728 5724 5720 5715 5710 5704 5699 5693 5686 5680 5673 5665 5657 5649 5640 5632 5623 5613 5603
5687 5694 5700 5705 5709 5714 5718 5722 5726 5729 5731 5733 5735 5737 5737 5737 5737 5737 5735 5734 5732 5729 5727 5724 5720 5716 5712 5707 5702 5696 5690 5684 5678 5671 5663 5655 5647 5639 5630 5621 5611 5602 5592
5679 5686 5691 5696 5702 5706 5711 5715 5718 5721 5724 5726 5728 5729 5730 5730 5730 5729 5728 5726 5724 5721 5719 5716 5712 5708 5703 5699 5693 5688 5682 5675 5669 5661 5654 5646 5637 5628 5619 5610 5600 5590 5581
5671 5677 5683 5688 5694 5699 5703 5707 5710 5714 5716 5718 5720 5721 5722 5722 5722 5721 5720 5718 5716 5713 5711 5707 5704 5700 5695 5690 5684 5679 5673 5666 5659 5652 5644 5635 5627 5618 5608 5599 5589 5579 5569
5662 5669 5675 5680 5686 5691 5695 5699 5703 5706 5709 5711 5712 5714 5714 5714 5714 5713 5712 5710 5708 5705 5703 5699 5696 5691 5686 5681 5676 5670 5664 5657 5650 5642 5633 5625 5616 5607 5598 5588 5579 5568 5558
5655 5661 5667 5672 5678 5683 5688 5692 5695 5698 5701 5703 5705 5706 5707 5707 5706 5705 5704 5702 5700 5697 5694 5691 5687 5683 5678 5673 5667 5661 5654 5648 5640 5632 5623 5615 5606 5597 5587 5577 5567 5556 5546
5646 5653 5659 5665 5670 5676 5681 5684 5688 5691 5693 5695 5697 5698 5699 5699 5698 5697 5696 5694 5692 5689 5686 5683 5679 5674 5669 5664 5658 5652 5645 5639 5631 5624 5613 5604 5595 5586 5576 5566 5556 5545 5534
5638 5645 5652 5657 5663 5668 5673 5677 5680 5683 5685 5688 5689 5690 5691 5691 5690 5689 5688 5686 5684 5681 5678 5675 5671 5666 5661 5655 5650 5643 5636 5628 5620 5612 5603 5594 5584 5575 5565 5555 5544 5534 5523
5630 5637 5644 5650 5655 5660 5665 5669 5672 5675 5677 5680 5681 5682 5683 5683 5682 5682 5680 5678 5676 5673 5670 5666 5662 5657 5652 5646 5640 5634 5626 5619 5611 5602 5593 5585 5574 5564 5554 5544 5533 5522 5511
5622 5629 5635 5641 5647 5652 5657 5661 5664 5667 5669 5672 5673 5674 5675 5675 5675 5674 5672 5670 5668 5665 5661 5657 5653 5648 5643 5637 5631 5625 5617 5610 5602 5593 5584 5575 5565 5555 5544 5533 5522 5511 5500
5613 5620 5627 5633 5639 5644 5649 5652 5656 5659 5662 5664 5665 5666 5667 5667 5667 5665 5664 5662 5660 5656 5653 5649 5644 5639 5634 5628 5622 5616 5609 5601 5593 5585 5575 5565 5555 5545 5535 5524 5512 5501 5490